Weather in Vidlitsa

Russia / Republic of Karelia     61°11′37″N   32°23′51″E
temp.,
°C
wind,
m/s
gust,
m/s
humid.,
%
clouds,
%
prec.,
mm/h
press.,
hPa
HPBL,
m
1 august, sun
sun100:00+14wsw27894 0.0 1000157
03:00+13sw27950 0.0 1002138
06:00+14ssw28957 0.0 1002314
09:00+18sw4678100 0.1 1002699
12:00+17sw5888100 0.8 1003652
15:00+17s258397 5.1 1001603
18:00+19ssw36725 0.1 1001575
21:00+15ssw399196 0.8 1001220
2 august, mon
mon200:00+14ssw39964 0.0 1001220
03:00+14sw399986 0.0 1002355
06:00+15sw4996100 0.0 1003505
09:00+17sw4881100 0.0 1004769
12:00+19sw4561100 0.0 10041117
15:00+20ssw345594 0.0 10041059
18:00+19s3460100 0.0 1003608
21:00+15ssw2591100 0.1 1002255
3 august, tue
tue300:00+14nw1199100 3.9 100053
03:00+14nnw3798100 12.1 999409
06:00+14wnw2598100 0.9 999179
09:00+16wsw478965 1.3 999491
12:00+19wsw576052 0.0 10001044
15:00+21sw58522 0.0 10011527
18:00+19wsw59627 0.0 1002909
21:00+15wnw49755 0.1 1004680
4 august, wed
wed400:00+12w310725 0.0 1006589
03:00+11wnw4117826 0.0 1008564
06:00+11wnw310775 0.0 1011471
09:00+16wnw47545 0.0 10121019
12:00+19w464118 0.0 10132083
15:00+19w454262 0.0 10151623
18:00+19wnw12404 0.0 10151168
21:00+12sw12675 0.0 101715
5 august, thu
thu500:00+11se116637 0.0 101714
03:00+10ese257211 0.0 1017104
06:00+11se267298 0.0 1017173
09:00+15sse246199 0.0 1017334
12:00+18se234873 0.0 1017682
15:00+21ssw234094 0.0 10161440
18:00+21sw21425 0.0 1016832
21:00+15ene116527 0.0 101610